Location: *
(45.9500°N, 9.0833°E)
Time: 14:59:18
(UTC+00:00)

COSMOS 2428 - Pass Details

Date: 03 March 2021
Orbit: 845 x 858 km, 70.9° (Epoch: 20 April)

Event Time Altitude Azimuth Distance (km) Brightness Sun altitude
Rises 19:16:21 0° 191° (S) 3,390 5.8 -22.1°
Reaches altitude 10° 19:18:49 10° 187° (S) 2,459 5.0 -22.5°
Maximum altitude 19:24:20 57° 111° (ESE) 994 2.7 -23.4°
Enters shadow 19:24:44 55° 93° (E) 1,008 2.7 -23.5°
Exits shadow 19:32:03 - 31° (NNE) 3,296 5.6 -24.7°
Sets 19:32:23 0° 30° (NNE) 3,422 5.7 -24.8°
